Regional Weather Roundup
Issued by NWS

Home | Current Version | Previous Version | Graphics & Text | Print | Product List | Glossary On
Versions: 1 2 3 4 5 6 7 8 9 10 11 12 13 14 15 16 17 18 19 20 21 22 23 24 25 26 27 28 29 30 31 32 33 34 35 36 37 38 39 40 41 42 43 44 45 46 47 48 49 50
698
ASUS43 KLOT 230604
RWRIL

ILLINOIS REGIONAL WEATHER ROUNDUP
NATIONAL WEATHER SERVICE CHICAGO/ROMEOVILLE IL
100 AM CDT SUN JUL 23 2017

NOTE: "FAIR" INDICATES FEW OR NO CLOUDS BELOW 12,000 FEET WITH NO
SIGNIFICANT WEATHER AND/OR OBSTRUCTIONS TO VISIBILITY.

* THESE STATIONS ARE NOT UNDER NWS QUALITY CONTROL. THEY ALSO MAY NOT
  REPORT WEATHER SUCH AS PRECIPITATION OR FOG.

ILZ001-002-007-009-015-016-024-230700-
NORTHWEST ILLINOIS

CITY           SKY/WX    TMP DP  RH WIND       PRES   REMARKS
MOLINE         MOCLDY    77  74  90 W5        29.82F
6HR MIN TEMP:  75; 6HR MAX TEMP:  84;

STERLING*      PTCLDY    73  73 100 W5        29.82R
SAVANNA*       MOCLDY    74  74  99 CALM      29.82S
$$

ILZ003-004-008-010-011-017-018-230700-
NORTH CENTRAL ILLINOIS

CITY           SKY/WX    TMP DP  RH WIND       PRES   REMARKS
ROCKFORD       MOCLDY    75  73  93 CALM      29.82S
6HR MIN TEMP:  75; 6HR MAX TEMP:  85;

FREEPORT*      PTCLDY    73  72  97 W3        29.82F
ROCHELLE*      CLEAR     73  72  99 W3        29.82S
DE KALB*       CLOUDY    74  73  95 CALM      29.82S
$$

ILZ005-006-012>014-019>023-230700-
NORTHEAST ILLINOIS

CITY           SKY/WX    TMP DP  RH WIND       PRES   REMARKS
CHICAGO-OHARE  PTCLDY    73  69  87 S3        29.79S
6HR MIN TEMP:  73; 6HR MAX TEMP:  83;

CHICAGO-MIDWAY PTCLDY    75  70  84 S5        29.79F
6HR MIN TEMP:  75; 6HR MAX TEMP:  83;

AURORA         PTCLDY    72  72 100 W3        29.81S
6HR MIN TEMP:  72; 6HR MAX TEMP:  84;

LANSING*       CLEAR     73  67  83 CALM      29.81S
JOLIET*        CLEAR     76  75  98 CALM      29.81S
WAUKEGAN       CLEAR     70  70 100 SW3       29.79S FOG
6HR MIN TEMP:  69; 6HR MAX TEMP:  75;

DUPAGE AIRPORT PTCLDY    72  71  97 CALM      29.81R
6HR MIN TEMP:  72; 6HR MAX TEMP:  84;

WHEELING       PTCLDY    74  72  93 CALM      29.81S
6HR MIN TEMP:  73; 6HR MAX TEMP:  80;

MORRIS*        CLOUDY    75  73  95 CALM      29.79S
NORTHERLY ISL    N/A     72  69  90 CALM        N/A
$$

LMZ740>746-230700-
SOUTHERN LAKE MICHIGAN

STATION/POSITION SKY/WX   TEMP    WIND        PRES    VSBY  WAVE
                          AIR SEA DIR/SP/G                  HT/PER
                          (F)     (DEG/KT/KT) (MB)    (MI)  (FT/S)
SOUTHERN BUOY              70 70   60/  2/  2 1009.0          0
WILMETTE HARBOR            72 73  200/  2/  2   N/A           0
HARRISON CRIB              74     180/  5/  5   N/A
BURNHAM HARBOR             72                   N/A
CALUMET HARBOR             74      90/  3/  5 1008.8F
BURNS HARBOR               75     170/  2/  4 1009.8F
MICHIGAN CITY              73     130/  4/  5   N/A
MICHIGAN CITY 6N           74 75  170/  4/  6   N/A           0
ST. JOSEPH                 73 75  120/  4/  4 1008.7F         1
$$

ILZ025>027-034>036-040-047-049-050-058-095>099-230700-
WEST-CENTRAL ILLINOIS

CITY           SKY/WX    TMP DP  RH WIND       PRES   REMARKS
QUINCY         PTCLDY    80  77  90 N7        29.84R HX  87
GALESBURG*     MOCLDY    75  75  98 NW5       29.85R
MACOMB*        PTCLDY    76  74  96 N3        29.85S
JACKSONVILLE*  PTCLDY    78  77  95 CALM      29.80F HX  81
PITTSFIELD*    PTCLDY    81  79  94 N3        29.83S HX  90
$$

ILZ028>032-037-038-041>044-048-051>054-059>061-230700-
CENTRAL ILLINOIS

CITY           SKY/WX    TMP DP  RH WIND       PRES   REMARKS
BLOOMINGTON    CLOUDY    75  74  96 CALM      29.84R
DECATUR        PTCLDY    78  76  93 CALM      29.81S HX  81
PEORIA         CLOUDY    78  77  96 CALM      29.82R HX  81
6HR MIN TEMP:  78; 6HR MAX TEMP:  86;

LACON*         MOCLDY    74  74 100 CALM      29.80S
LINCOLN*       MOCLDY    77  77 100 N3        29.81S
SPRINGFIELD    CLEAR     81  79  94 NE3       29.80F HX  90
6HR MIN TEMP:  80; 6HR MAX TEMP:  90;

TAYLORVILLE    NOT AVBL
$$

ILZ033-039-045-046-055>057-062-063-230700-
EAST-CENTRAL ILLINOIS

CITY           SKY/WX    TMP DP  RH WIND       PRES   REMARKS
CHAMPAIGN      CLOUDY    78  75  90 SE6       29.82S HX  81
MATTOON        CLOUDY    76  76 100 CALM      29.80R
PARIS*         LGT RAIN  75  74  98 SW3       29.83F
$$

ILZ079-100>102-230700-
SOUTHWEST ILLINOIS

CITY           SKY/WX    TMP DP  RH WIND       PRES   REMARKS
ALTON          CLOUDY    81  76  84 W5        29.78F HX  88
BELLEVILLE     PTCLDY    81  73  75 S8        29.79F HX  86
CAHOKIA*       MOCLDY    80  69  69 SW5       29.77F HX  83
SPARTA*        CLEAR     84  73  68 W5        29.82F HX  90
$$

ILZ064>066-069>071-074>076-080>082-084>086-088>090-092>094-230700-
SOUTH-CENTRAL ILLINOIS

CITY           SKY/WX    TMP DP  RH WIND       PRES   REMARKS
CARBONDALE     PTCLDY    85  76  74 SW13      29.81F HX  94
6HR MIN TEMP:  85; 6HR MAX TEMP:  90;

CAIRO*         CLEAR     83  76  77 SW8       29.86S HX  91
EFFINGHAM*     CLOUDY    82  75  81 NE5       29.81R HX  88
MARION         PTCLDY    86  75  70 SW12G17   29.83S HX  95
MT. VERNON     PTCLDY    84  75  74 SW9       29.81S HX  92
CENTRALIA*     CLOUDY    86  76  72 SW10      29.79S HX  95
SALEM*         CLOUDY    86  74  67 SW7       29.80R HX  95
METROPOLIS*    CLEAR     82  76  81 SW7       29.86F HX  90
$$

ILZ067-068-072-073-078-083-087-091-230700-
SOUTHEAST ILLINOIS

CITY           SKY/WX    TMP DP  RH WIND       PRES   REMARKS
LAWRENCEVILLE  TSTM      79  73  82 SW20      29.81S HX  82
FLORA*         CLOUDY    83  76  79 S6        29.79S THUNDER HX  92
FAIRFIELD*     CLOUDY    83  75  76 SW5       29.80R HX  91
HARRISBURG*    MOCLDY    84  76  75 SW8       29.83S HX  93
ROBINSON*      CLOUDY    73  68  85 NE12      29.84R THUNDER
CARMI*         PTCLDY    83  75  77 SW12      29.80F HX  91
$$

ABBREVIATIONS USED IN REMARKS
   TC - TEMPERATURE IN CELSIUS
  WCI - WIND CHILL INDEX
   HX - HEAT INDEX
  VSB - VISIBILITY
$$





USA.gov is the U.S. government's official web portal to all federal, state and local government web resources and services.